Albuquerque, NM

3:50 AM MST on February 25, 2017 (GMT -0700)
Double Eagle Ii

Weather History for KAEG - September, 2013

Change the Weather History Date:

Tuesday, September 17, 2013

  Actual Average (KABQ) Record (KABQ)
Temperature  
Mean Temperature 66 °F -  
Max Temperature 77 °F 82 °F 91 °F (1935)
Min Temperature 55 °F 54 °F 37 °F (1903)
Cooling Degree Days 1    
Growing Degree Days 16 (Base 50)    
Moisture  
Dew Point 55 °F    
Average Humidity 75    
Maximum Humidity 94    
Minimum Humidity 41    
Precipitation  
Precipitation 0.00 in - - ()
Sea Level Pressure  
Sea Level Pressure 30.19 in    
Wind  
Wind Speed 5 mph (SSE)    
Max Wind Speed 12 mph    
Max Gust Speed -    
Visibility 10 miles    
Events Thunderstorm    
Averages and records for this station are not official NWS values.
T = Trace of Precipitation, MM = Missing Value Source: NWS Daily Summary

Daily Weather History Graph

Daily Weather History Graph

Search for Another Location

Airport or City:

Trip Planner

Search our weather history database for the weather conditions in past years. The results will help you decide how hot, cold, wet, or windy it might be!

Date:

Astronomy

Sep. 17, 2013 Rise Set
Actual Time 6:51 AM MDT 7:10 PM MDT
Civil Twilight 6:26 AM MDT 7:36 PM MDT
Nautical Twilight 5:56 AM MDT 8:05 PM MDT
Astronomical Twilight 5:26 AM MDT 8:35 PM MDT
Moon 5:57 PM MDT (9/17) 4:52 AM MDT (9/17)
Length of Visible Light 13h 09m
Length of Day
12h 19m
Waxing Gibbous, 96% of the Moon is Illuminated
Sep 17
Waxing Gibbous
Sep 19
Full
Sep 26
Last Quarter
Oct 4
New
Oct 11
First Quarter

Hourly Weather History & Observations

Time (MDT) Temp. Dew Point Humidity Pressure Visibility Wind Dir Wind Speed Gust Speed Precip Events Conditions
12:15 AM 59.9 °F 55.6 °F 86% 30.27 in 10.0 mi South 4.6 mph - N/A   Clear
12:35 AM 59.7 °F 55.4 °F 86% 30.26 in 10.0 mi SSW 3.5 mph - N/A   Clear
12:55 AM 59.0 °F 55.4 °F 88% 30.25 in 10.0 mi SW 5.8 mph - N/A Thunderstorm Clear
1:15 AM 58.6 °F 55.4 °F 89% 30.25 in 10.0 mi Calm Calm - N/A   Clear
1:35 AM 59.4 °F 55.0 °F 86% 30.25 in 10.0 mi SSE 3.5 mph - N/A   Clear
1:55 AM 57.9 °F 54.7 °F 89% 30.25 in 10.0 mi SSW 4.6 mph - N/A   Clear
2:15 AM 57.7 °F 54.7 °F 90% 30.25 in 10.0 mi South 3.5 mph - N/A   Clear
2:35 AM 57.4 °F 54.7 °F 91% 30.24 in 10.0 mi SE 3.5 mph - N/A   Clear
2:55 AM 57.4 °F 54.3 °F 90% 30.24 in 10.0 mi ESE 4.6 mph - N/A   Clear
3:15 AM 57.7 °F 54.5 °F 89% 30.24 in 10.0 mi Calm Calm - N/A   Clear
3:35 AM 58.3 °F 54.7 °F 88% 30.24 in 10.0 mi NE 3.5 mph - N/A   Clear
3:55 AM 57.2 °F 54.5 °F 91% 30.24 in 10.0 mi Calm Calm - N/A   Clear
4:15 AM 58.1 °F 54.5 °F 88% 30.23 in 10.0 mi ENE 3.5 mph - N/A   Mostly Cloudy
4:35 AM 56.5 °F 54.0 °F 91% 30.23 in 10.0 mi Calm Calm - N/A   Scattered Clouds
4:55 AM 55.9 °F 53.8 °F 92% 30.23 in 10.0 mi Calm Calm - N/A   Clear
5:15 AM 57.2 °F 54.0 °F 89% 30.23 in 10.0 mi ENE 6.9 mph - N/A   Clear
5:35 AM 57.6 °F 54.0 °F 88% 30.24 in 10.0 mi ENE 5.8 mph - N/A   Clear
7:50 AM 57.2 °F 55.4 °F 94% 30.25 in 10.0 mi Calm Calm - N/A   Scattered Clouds
8:50 AM 62.6 °F 55.4 °F 77% 30.25 in 10.0 mi Calm Calm - N/A   Scattered Clouds
9:50 AM 66.2 °F 57.2 °F 73% 30.25 in 10.0 mi Variable 3.5 mph - N/A   Scattered Clouds
10:50 AM 68.0 °F 57.2 °F 68% 30.25 in 10.0 mi Variable 5.8 mph - N/A   Scattered Clouds
11:50 AM 71.6 °F 55.4 °F 57% 30.24 in 10.0 mi Variable 6.9 mph - N/A   Scattered Clouds
12:50 PM 71.6 °F 55.4 °F 57% 30.21 in 10.0 mi Variable 4.6 mph - N/A   Scattered Clouds
1:50 PM 75.2 °F 55.4 °F 50% 30.17 in 10.0 mi Variable 4.6 mph - N/A   Scattered Clouds
2:50 PM 77.0 °F 55.4 °F 47% 30.14 in 10.0 mi South 10.4 mph - N/A   Scattered Clouds
3:50 PM 75.2 °F 53.6 °F 47% 30.11 in 10.0 mi South 11.5 mph - N/A   Mostly Cloudy
4:50 PM 77.0 °F 53.6 °F 44% 30.09 in 10.0 mi SSE 11.5 mph - N/A   Scattered Clouds
5:50 PM 77.0 °F 51.8 °F 41% 30.09 in 10.0 mi South 9.2 mph - N/A   Mostly Cloudy
6:50 PM 73.4 °F 53.6 °F 50% 30.08 in 10.0 mi SSE 9.2 mph - N/A   Mostly Cloudy
7:50 PM 69.8 °F 53.6 °F 56% 30.09 in 10.0 mi SSE 8.1 mph - N/A   Mostly Cloudy
8:50 PM 69.8 °F 55.4 °F 60% 30.11 in 10.0 mi South 11.5 mph - N/A   Scattered Clouds
9:50 PM 66.2 °F 57.2 °F 73% 30.12 in 10.0 mi SSE 9.2 mph - N/A   Clear
10:15 PM 66.0 °F 56.3 °F 71% 30.12 in 10.0 mi South 10.4 mph - N/A   Clear
10:35 PM 65.7 °F 56.3 °F 72% 30.12 in 10.0 mi SSE 10.4 mph - N/A   Clear
10:55 PM 65.3 °F 56.3 °F 73% 30.12 in 10.0 mi South 11.5 mph - N/A   Clear
11:15 PM 65.3 °F 56.3 °F 73% 30.12 in 10.0 mi South 11.5 mph - N/A   Clear
11:35 PM 64.9 °F 56.7 °F 74% 30.12 in 10.0 mi South 9.2 mph - N/A   Clear
11:55 PM 64.9 °F 57.2 °F 76% 30.12 in 10.0 mi South 10.4 mph - N/A   Mostly Cloudy